Погода в Акбулаке

Россия / Оренбургская область     51°00′05″N   55°36′58″E
темп.,
°C
ветер,
м/с
пор.,
м/с
влажн.,
%
обл.,
%
осадки,
мм/ч
давл.,
гПа
погр.,
м
15 апреля, чт
чт1523:00+12вюв513660 0.0 1026231
02:00+10вюв410700 0.0 1026165
05:00+8вюв49710 0.0 1026135
08:00+9вюв511645 0.0 1025219
11:00+16вюв69430 0.0 1024487
14:00+20юв67300 0.0 10231124
17:00+20вюв67270 0.0 10211426
20:00+15в46480 0.0 102079
16 апреля, пт
пт1623:00+12вюв46545 0.0 102071
02:00+10вюв45580 0.0 101963
05:00+9вюв46610 0.0 101980
08:00+10вюв48635 0.0 1019179
11:00+16вюв564316 0.0 1019507
14:00+20вюв5533100 0.0 10181443
17:00+20вюв452986 0.0 10172405
20:00+16всв484856 0.0 1017102
17 апреля, сб
сб1723:00+13в4105648 0.0 1017164
02:00+11в411595 0.0 1017182
05:00+10в410615 0.0 1017170
08:00+11вюв49635 0.0 1017236
11:00+16вюв55477 0.1 1017622
14:00+20юв463779 0.1 10162096
17:00+20юв5535100 0.1 10152273
20:00+12юв7107998 1.4 1016541
18 апреля, вс
вс1823:00+11всв378397 1.4 1016359
02:00+10св479058 0.0 1015153
05:00+10ссв368685 0.0 1015155
08:00+10с258398 0.0 1015185
11:00+13ссв3468100 0.0 1015553
14:00+17ссз345123 0.0 10141545
17:00+17с77370 0.4 10141295
20:00+12с712440 0.0 1015496
19 апреля, пн
пн1923:00+9ссв915560 0.0 1016577
02:00+6всв1015757 0.0 1018635
05:00+4всв10156093 0.0 1021830
08:00+2всв101359100 0.0 10251022
11:00+4всв1012404 0.0 10271325
14:00+6всв911300 0.0 10291832
17:00+6всв810270 0.0 10301981
20:00+4всв710340 0.0 1032706